Location: Dodgeville, WI 53533, USA
(43.0344°N, 90.0900°W)
Time: 23:44:56
(UTC-06:00)

ISS - Pass Details

Date: 02 February 2021
Orbit: 417 x 422 km, 51.6° (Epoch: 08 March)

Event Time Altitude Azimuth Distance (km) Brightness Sun altitude
Rises 18:53:24 0° 303° (WNW) 2,375 0.9 -18.3°
Reaches altitude 10° 18:55:31 10° 304° (NW) 1,508 -0.2 -18.6°
Maximum altitude 18:58:54 84° 32° (NNE) 428 -3.9 -19.3°
Enters shadow 18:59:07 76° 99° (E) 438 -3.9 -19.3°
